Vidsel, Sweden

2:55 PM CEST on August 17, 2017 (GMT +0200)
Vidsel Air Base

Weather History for ESPE - February, 2013

Change the Weather History Date:

Tuesday, February 26, 2013

  Actual Average Record
Temperature  
Mean Temperature 40 °F -  
Max Temperature 46 °F - - ()
Min Temperature 33 °F - - ()
Degree Days  
Heating Degree Days 26    
Moisture  
Dew Point 31 °F    
Average Humidity 68    
Maximum Humidity 81    
Minimum Humidity 61    
Precipitation  
Precipitation 0.00 in - - ()
Sea Level Pressure  
Sea Level Pressure 29.96 in    
Wind  
Wind Speed 9 mph ()    
Max Wind Speed 17 mph    
Max Gust Speed 29 mph    
Visibility 6.2 miles    
Events Rain , Snow    
T = Trace of Precipitation, MM = Missing Value Source: Averaged Metar Reports

Daily Weather History Graph

Daily Weather History Graph

Search for Another Location

Airport or City:

Trip Planner

Search our weather history database for the weather conditions in past years. The results will help you decide how hot, cold, wet, or windy it might be!

Date:

Astronomy

Feb. 26, 2013 Rise Set
Actual Time 7:02 AM CET 4:43 PM CET
Civil Twilight 6:10 AM CET 5:35 PM CET
Nautical Twilight 5:12 AM CET 6:34 PM CET
Astronomical Twilight 4:12 AM CET 7:34 PM CET
Moon 6:24 PM CET (2/26) 6:24 AM CET (2/26)
Length of Visible Light 11h 24m
Length of Day
9h 40m
Full, 100% of the Moon is Illuminated
Feb 26
Full
Mar 4
Last Quarter
Mar 11
New
Mar 19
First Quarter
Mar 27
Full

Hourly Weather History & Observations

Time (CET) Temp. Windchill Dew Point Humidity Pressure Visibility Wind Dir Wind Speed Gust Speed Precip Events Conditions
12:20 AM 37.4 °F 30.8 °F 28.4 °F 70% 30.06 in 6.2 mi WSW 9.2 mph - N/A   Mostly Cloudy
12:50 AM 37.4 °F 30.3 °F 28.4 °F 70% 30.04 in 6.2 mi WSW 10.4 mph - N/A   Overcast
1:20 AM 35.6 °F 28.6 °F 28.4 °F 75% 30.01 in 6.2 mi WSW 9.2 mph - N/A   Scattered Clouds
1:50 AM 35.6 °F 29.2 °F 26.6 °F 70% 29.98 in 6.2 mi SW 8.1 mph - N/A   Partly Cloudy
2:20 AM 37.4 °F 31.4 °F 26.6 °F 65% 29.95 in 6.2 mi Variable 8.1 mph - N/A   Partly Cloudy
2:50 AM 37.4 °F 32.1 °F 26.6 °F 65% 29.92 in 6.2 mi WSW 6.9 mph - N/A   Mostly Cloudy
3:20 AM 37.4 °F 29.8 °F 28.4 °F 70% 29.89 in 6.2 mi West 11.5 mph 23.0 mph N/A   Overcast
3:50 AM 39.2 °F 32.0 °F 28.4 °F 65% 29.89 in 6.2 mi West 11.5 mph 27.6 mph N/A   Mostly Cloudy
4:20 AM 39.2 °F 33.6 °F 28.4 °F 65% 29.86 in 6.2 mi West 8.1 mph - N/A   Partly Cloudy
4:50 AM 39.2 °F 32.0 °F 28.4 °F 65% 29.86 in 6.2 mi West 11.5 mph 23.0 mph N/A   Scattered Clouds
5:20 AM 39.2 °F 32.0 °F 28.4 °F 65% 29.86 in 6.2 mi West 11.5 mph - N/A   Partly Cloudy
5:50 AM 39.2 °F 31.6 °F 30.2 °F 70% 29.83 in 6.2 mi West 12.7 mph 25.3 mph N/A   Unknown
6:20 AM 39.2 °F 30.8 °F 30.2 °F 70% 29.83 in 6.2 mi West 15.0 mph 27.6 mph N/A   Scattered Clouds
6:50 AM 39.2 °F 31.2 °F 30.2 °F 70% 29.80 in 6.2 mi West 13.8 mph 25.3 mph N/A   Unknown
7:20 AM 41.0 °F 33.9 °F 32.0 °F 70% 29.80 in - West 12.7 mph - N/A   Clear
7:50 AM 41.0 °F 33.9 °F 32.0 °F 70% 29.80 in - West 12.7 mph - N/A   Clear
8:20 AM 42.8 °F 36.6 °F 32.0 °F 66% 29.80 in - West 11.5 mph - N/A   Clear
8:50 AM 42.8 °F 36.6 °F 32.0 °F 66% 29.80 in - West 11.5 mph - N/A   Clear
9:20 AM 44.6 °F 38.1 °F 32.0 °F 61% 29.83 in 6.2 mi WNW 13.8 mph 26.5 mph N/A   Unknown
9:50 AM 44.6 °F 38.1 °F 32.0 °F 61% 29.83 in - WNW 13.8 mph - N/A   Clear
10:20 AM 44.6 °F 37.4 °F 33.8 °F 66% 29.83 in - WNW 16.1 mph - N/A   Clear
10:50 AM 46.4 °F 40.1 °F 33.8 °F 62% 29.86 in 6.2 mi WNW 15.0 mph - N/A   Unknown
11:20 AM 46.4 °F 40.4 °F 33.8 °F 62% 29.86 in - WNW 13.8 mph - N/A   Clear
11:50 AM 46.4 °F 39.5 °F 33.8 °F 62% 29.89 in 6.2 mi NW 17.3 mph 28.8 mph N/A   Partly Cloudy
12:20 PM 46.4 °F 40.7 °F 33.8 °F 62% 29.92 in 6.2 mi WNW 12.7 mph - N/A   Partly Cloudy
12:50 PM 46.4 °F 39.8 °F 33.8 °F 62% 29.92 in - NW 16.1 mph - N/A   Clear
1:20 PM 46.4 °F 40.4 °F 33.8 °F 62% 29.92 in - WNW 13.8 mph - N/A   Clear
1:50 PM 46.4 °F 40.4 °F 33.8 °F 62% 29.95 in - NW 13.8 mph - N/A   Clear
2:20 PM 46.4 °F 40.7 °F 33.8 °F 62% 29.95 in - WNW 12.7 mph - N/A   Clear
2:50 PM 44.6 °F 40.2 °F 33.8 °F 66% 29.98 in - WNW 8.1 mph - N/A   Clear
3:20 PM 44.6 °F 41.4 °F 33.8 °F 66% 29.98 in - WNW 5.8 mph - N/A   Clear
3:50 PM 44.6 °F 40.7 °F 32.0 °F 61% 30.01 in - WNW 6.9 mph - N/A   Clear
4:20 PM 44.6 °F 40.2 °F 32.0 °F 61% 30.01 in 6.2 mi WNW 8.1 mph - N/A   Unknown
4:50 PM 42.8 °F 39.3 °F 32.0 °F 66% 30.04 in 6.2 mi WNW 5.8 mph - N/A   Unknown
5:20 PM 42.8 °F 39.3 °F 32.0 °F 66% 30.04 in 6.2 mi West 5.8 mph - N/A   Unknown
5:50 PM 39.2 °F - 32.0 °F 75% 30.06 in 6.2 mi Variable 1.2 mph - N/A   Unknown
6:20 PM 35.6 °F - 30.2 °F 81% 30.06 in 6.2 mi Variable 1.2 mph - N/A   Partly Cloudy
6:50 PM 39.2 °F - 32.0 °F 75% 30.09 in 6.2 mi Variable 1.2 mph - N/A   Partly Cloudy
7:20 PM 37.4 °F - 30.2 °F 75% 30.09 in 6.2 mi Variable 2.3 mph - N/A   Partly Cloudy
7:50 PM 37.4 °F 30.8 °F 30.2 °F 75% 30.12 in 6.2 mi ESE 9.2 mph - N/A   Mostly Cloudy
8:20 PM 35.6 °F 29.9 °F 28.4 °F 75% 30.12 in 6.2 mi ESE 6.9 mph - N/A   Mostly Cloudy
8:50 PM 35.6 °F 30.7 °F 28.4 °F 75% 30.12 in 6.2 mi SE 5.8 mph - N/A   Overcast
9:20 PM 35.6 °F 31.7 °F 26.6 °F 70% 30.15 in 6.2 mi ESE 4.6 mph - N/A   Overcast
9:50 PM 35.6 °F 31.7 °F 26.6 °F 70% 30.15 in 6.2 mi SE 4.6 mph - N/A   Overcast
10:20 PM 35.6 °F 30.7 °F 26.6 °F 70% 30.12 in 6.2 mi ESE 5.8 mph - N/A   Overcast
10:50 PM 35.6 °F 31.7 °F 28.4 °F 75% 30.15 in 6.2 mi SE 4.6 mph - N/A Rain Light Rain
11:20 PM 33.8 °F 29.6 °F 28.4 °F 81% 30.12 in 6.2 mi ESE 4.6 mph - N/A Rain , Snow Light Rain
11:50 PM 33.8 °F 28.6 °F 28.4 °F 81% 30.12 in 6.2 mi ESE 5.8 mph - N/A Rain Light Rain